Miscellaneous Local Product
Issued by NWS North Platte, NE

Home | Current Version | Previous Version | Text Only | Print | Product List | Glossary On
Versions: 1 2 3 4 5 6 7 8 9 10 11 12 13 14 15 16 17 18 19 20 21 22 23 24 25 26 27 28 29 30 31 32 33 34 35 36 37 38 39 40 41 42 43 44 45 46 47 48 49 50
000
AXUS43 KLBF 190510
MISLBF


WESTERN AND NORTH CENTRAL NEBRASKA HOURLY WEATHER ROUNDUP
NATIONAL WEATHER SERVICE NORTH PLATTE NE
1200 AM CDT SAT AUG 19 2017

NOTE: "FAIR" INDICATES FEW OR NO CLOUDS BELOW 12,000 FEET WITH NO
SIGNIFICANT WEATHER AND/OR OBSTRUCTIONS TO VISIBILITY.

NOTE: STATIONS NOT REPORTING VARIABLES SUCH AS SKY/WEATHER OR
PRESSURE ARE PROVIDED BY RAWS AND APRS NETWORKS AND ARE NOT UNDER
NATIONAL WEATHER SERVICE QUALITY CONTROL.

...OBSERVATIONS IN AND NEAR THE EASTERN PANHANDLE OF NEBRASKA...

CITY           SKY/WX    TMP DP  RH WIND       PRES   REMARKS
PINE RIDGE     FAIR      67  52  58 NE3       30.01S
GORDON         FAIR      56  51  82 E3        30.04S
CHADRON        FAIR      72  47  40 SE9       29.99S
ALLIANCE       FAIR      60  50  69 SE8       30.05S
SIDNEY         FAIR      64  49  57 S10       30.10F
CRESCENT LAKE    N/A     66  53  64 S5          N/A
$$

...OBSERVATIONS IN NORTHERN NEBRASKA AND FAR SOUTHERN SOUTH DAKOTA...

CITY           SKY/WX    TMP DP  RH WIND       PRES   REMARKS
WINNER         FAIR      64  59  83 SE10      29.99S
VALENTINE      FAIR      67  53  61 SE6       30.02S
THEDFORD       FAIR      64  57  79 SE6       30.06R
AINSWORTH      FAIR      61  58  87 SE6       30.03S
O`NEILL        FAIR      63  60  90 E6        30.02S
ORD            FAIR      64  58  80 CALM      30.02R
BROKEN BOW     FAIR      65  59  81 CALM      30.04R
VALENTINE NWR    N/A     63  57  80 E5          N/A
HALSEY           N/A     67  56  67 E5          N/A
BUTTE            N/A     64  56  77 E7          N/A
CHAMBERS         N/A     64  58  82 CALM        N/A
EWING            N/A     62  58  88 CALM        N/A
$$

...OBSERVATIONS IN SOUTHWEST NEBRASKA AND FAR NORTHEAST COLORADO...

CITY           SKY/WX    TMP DP  RH WIND       PRES   REMARKS
HOLYOKE        FAIR      61  52  72 S8        30.08F
IMPERIAL       FAIR      69  54  58 SW9       30.06S
OGALLALA       FAIR      65  54  68 W3        30.05S
NORTH PLATTE   FAIR      62  57  83 E9        30.03S
MCCOOK         FAIR      70  58  65 SW8       30.02S
LEXINGTON      FAIR      65  61  85 N7        30.03R
STAPLETON        N/A     65  58  77 CALM        N/A
GOTHENBURG       N/A     71  57  61 CALM        N/A
CALLAWAY         N/A     67  60  79 E5          N/A
$$

...OBSERVATIONS IN CENTRAL LINCOLN COUNTY AREA...

CITY           SKY/WX    TMP DP  RH WIND       PRES   REMARKS
N.P. AIRPORT   FAIR      62  57  83 E9        30.03S
N.P. DOWNTOWN    N/A     69  57  65 CALM        N/A
N.P. SOUTHEAST   N/A     66  56  71 CALM        N/A
N.P. HILLCREST   N/A     68  57  68 E13         N/A
$$

...SOME OBSERVATIONS FROM AROUND THE REGION...

CITY           SKY/WX    TMP DP  RH WIND       PRES   REMARKS
DENVER         FAIR      66  48  52 S9        30.16R
LIMON          FAIR      59  53  80 CALM      30.20R
ASPEN          FAIR      57  37  47 SW9       30.36R
LARAMIE        FAIR      54  43  66 S8        30.26F
CASPER         FAIR      57  41  55 CALM      30.08F
CHEYENNE       FAIR      61  45  55 SW6       30.19F
SCOTTSBLUFF    FAIR      63  52  67 E7        30.05S
GRAND ISLAND   FAIR      70  64  81 CALM      30.01R
OMAHA          FAIR      70  65  84 N5        29.93S
SIOUX FALLS    FAIR      62  60  93 W5        29.97R
PIERRE         FAIR      63  55  75 SE8       29.95R
RAPID CITY     FAIR      66  47  50 S7        29.99S
BISMARCK       FAIR      64  55  72 SE3       29.91S
KANSAS CITY    FAIR      70  66  87 S5        29.94S
HILL CITY      FAIR      63  60  90 CALM      30.02S
WICHITA        FAIR      78  67  68 E6        29.95S
DODGE CITY     FAIR      70  62  76 N6        30.02R
OKLAHOMA CITY  FAIR      75  72  90 S3        29.99R
DALLAS         FAIR      81  75  82 E3        29.98R
AMARILLO       FAIR      76  67  73 S9        30.12R
$$




USA.gov is the U.S. government's official web portal to all federal, state and local government web resources and services.